Simultaneous Nadir Overpasses (SNOs) Predictions

Prediction of SNOs between GOES-15 and METOP-B Satellite Orbit:

Table of predicted SNOs for the next 14.0 days since TLE Epoch: 2/22/2019
Index Date Time (GOES-15) GOES-15 Lat,Lon METOP-B Lat,Lon Distance(km) Time Diff (sec)
1 02/23/2019 17:52:24 0.02,-128.28 -0.59,-125.60 306.00 80
2 02/25/2019 06:11:25 -0.02,-128.33 -0.42,-130.20 212.19 80
3 02/26/2019 05:48:06 -0.02,-128.35 0.66,-125.20 358.10 80
4 02/27/2019 18:06:59 0.02,-128.34 0.34,-129.76 162.78 80
5 02/28/2019 17:49:01 0.02,-128.35 -0.79,-124.77 407.58 80
6 03/02/2019 06:08:02 -0.01,-128.40 -0.21,-129.37 111.20 80
7 03/03/2019 05:44:44 -0.00,-128.40 0.92,-124.39 458.59 80
8 03/04/2019 18:03:36 0.00,-128.38 0.14,-128.94 63.37 80
9 03/07/2019 06:04:39 -0.00,-128.44 0.00,-128.55 12.35 80




NCC Satellite Simultaneous Nadir Overpasses (SNOs) Prediction Service
